When you browse on this site, cookies collect data to enhance your experience and personalize the content and advertising you see.
Visit our Privacy Policy to learn more. By continuing to use the site, you agree to this use of cookies and data.
  • In Netherlands
  • List of Countries
  • For 7 days
  • Water Temperature
  • Weather Map
  • Weather Widgets
  • user-avatar
    Login

    Hourly Weather Sergino

    Today, 13 December, Friday

    Time Temperature Precipitation Wind Pressure Humidity
    00:00 -2°C° 0 mm 4 mps 746 mmHg 88%
    01:00 -1°C° 0 mm 4 mps 746 mmHg 87%
    02:00 -1°C° 0 mm 4 mps 746 mmHg 85%
    03:00 -1°C° 0 mm 4 mps 745 mmHg 87%
    04:00 0°C° 0 mm 3 mps 745 mmHg 88%
    05:00 0°C° 0 mm 3 mps 745 mmHg 90%
    06:00 0°C° 0 mm 3 mps 745 mmHg 90%
    07:00 0°C° 0 mm 3 mps 745 mmHg 91%
    08:00 0°C° 0 mm 3 mps 745 mmHg 90%
    09:00 -1°C° 0 mm 3 mps 745 mmHg 89%
    10:00 -1°C° 0 mm 3 mps 745 mmHg 88%
    11:00 -2°C° 0 mm 4 mps 744 mmHg 87%
    12:00 -1°C° 0 mm 3 mps 744 mmHg 86%
    13:00 -1°C° 0 mm 3 mps 744 mmHg 85%
    14:00 -1°C° 0 mm 3 mps 744 mmHg 84%
    15:00 -1°C° 0 mm 3 mps 744 mmHg 85%
    16:00 -1°C° 0 mm 3 mps 744 mmHg 87%
    17:00 -2°C° 0 mm 3 mps 744 mmHg 88%
    18:00 -2°C° 0 mm 3 mps 744 mmHg 89%
    19:00 -2°C° 0 mm 3 mps 744 mmHg 89%
    20:00 -2°C° 0 mm 3 mps 744 mmHg 90%
    21:00 -2°C° 0 mm 3 mps 744 mmHg 89%
    22:00 -2°C° 0 mm 3 mps 744 mmHg 87%
    23:00 -2°C° 0 mm 3 mps 744 mmHg 86%

    Tomorrow, 14 December, Saturday

    Time Temperature Precipitation Wind Pressure Humidity
    00:00 -2°C° 0 mm 3 mps 744 mmHg 85%
    01:00 -2°C° 0 mm 3 mps 744 mmHg 85%
    02:00 -2°C° 0 mm 3 mps 744 mmHg 84%
    03:00 -1°C° 0 mm 3 mps 744 mmHg 86%
    04:00 -1°C° 0 mm 3 mps 744 mmHg 88%
    05:00 -1°C° 0 mm 3 mps 743 mmHg 90%
    06:00 -1°C° 0 mm 3 mps 743 mmHg 88%
    07:00 -1°C° 0 mm 3 mps 744 mmHg 87%
    08:00 -2°C° 0 mm 4 mps 744 mmHg 86%
    09:00 -2°C° 0 mm 4 mps 744 mmHg 84%
    10:00 -1°C° 0 mm 4 mps 744 mmHg 82%
    11:00 -1°C° 0 mm 4 mps 744 mmHg 81%
    12:00 -1°C° 0 mm 4 mps 744 mmHg 81%
    13:00 -2°C° 0 mm 4 mps 744 mmHg 81%
    14:00 -2°C° 0 mm 4 mps 744 mmHg 81%
    15:00 -2°C° 0 mm 4 mps 744 mmHg 80%
    16:00 -2°C° 0 mm 4 mps 744 mmHg 80%
    17:00 -2°C° 0 mm 4 mps 744 mmHg 80%
    18:00 -2°C° 0 mm 4 mps 744 mmHg 81%
    19:00 -3°C° 0 mm 4 mps 744 mmHg 82%
    20:00 -3°C° 0 mm 4 mps 744 mmHg 83%
    21:00 -3°C° 0 mm 4 mps 743 mmHg 84%
    22:00 -3°C° 0 mm 4 mps 743 mmHg 84%
    23:00 -3°C° 0 mm 4 mps 743 mmHg 85%

    Day after tomorrow, 15 December, Sunday

    Time Temperature Precipitation Wind Pressure Humidity
    00:00 -3°C° 0 mm 4 mps 743 mmHg 85%
    01:00 -3°C° 0 mm 4 mps 743 mmHg 84%
    02:00 -3°C° 0 mm 4 mps 743 mmHg 84%
    03:00 -3°C° 0 mm 4 mps 742 mmHg 86%
    04:00 -3°C° 0 mm 4 mps 742 mmHg 88%
    05:00 -3°C° 0 mm 4 mps 741 mmHg 91%
    06:00 -3°C° 0.1 mm 4 mps 741 mmHg 92%
    07:00 -1°C° 0.1 mm 3 mps 740 mmHg 93%
    08:00 -1°C° 0.1 mm 3 mps 740 mmHg 95%
    09:00 -1°C° 0.1 mm 4 mps 740 mmHg 94%
    10:00 0°C° 0.1 mm 4 mps 739 mmHg 94%
    11:00 0°C° 0.1 mm 4 mps 739 mmHg 94%
    12:00 +1°C° 0.2 mm 4 mps 738 mmHg 93%
    13:00 +1°C° 0.2 mm 4 mps 738 mmHg 93%
    14:00 +1°C° 0.2 mm 5 mps 737 mmHg 93%
    15:00 +1°C° 0.8 mm 4 mps 737 mmHg 94%
    16:00 +1°C° 0.8 mm 4 mps 737 mmHg 95%
    17:00 +1°C° 0.8 mm 4 mps 737 mmHg 96%
    18:00 +1°C° 0.2 mm 4 mps 737 mmHg 94%
    19:00 0°C° 0.2 mm 4 mps 737 mmHg 92%
    20:00 0°C° 0.2 mm 4 mps 738 mmHg 89%
    21:00 0°C° 0 mm 4 mps 738 mmHg 89%
    22:00 0°C° 0 mm 4 mps 739 mmHg 89%
    23:00 0°C° 0 mm 3 mps 739 mmHg 89%

    16 December, Monday

    Time Temperature Precipitation Wind Pressure Humidity
    00:00 0°C° 0 mm 3 mps 739 mmHg 89%
    01:00 -1°C° 0 mm 3 mps 739 mmHg 90%
    02:00 -1°C° 0 mm 3 mps 740 mmHg 90%
    03:00 -1°C° 0 mm 3 mps 739 mmHg 91%
    04:00 -2°C° 0 mm 4 mps 739 mmHg 92%
    05:00 -2°C° 0 mm 4 mps 739 mmHg 93%
    06:00 -1°C° 0.2 mm 4 mps 739 mmHg 92%
    07:00 -1°C° 0.2 mm 4 mps 739 mmHg 91%
    08:00 -1°C° 0.2 mm 4 mps 739 mmHg 91%
    09:00 0°C° 0 mm 4 mps 740 mmHg 89%
    10:00 0°C° 0 mm 4 mps 740 mmHg 87%
    11:00 0°C° 0 mm 4 mps 741 mmHg 85%
    12:00 0°C° 0 mm 4 mps 741 mmHg 85%
    13:00 0°C° 0 mm 4 mps 741 mmHg 85%
    14:00 0°C° 0 mm 4 mps 741 mmHg 85%
    15:00 -1°C° 0 mm 4 mps 741 mmHg 85%
    16:00 -1°C° 0 mm 4 mps 741 mmHg 85%
    17:00 -1°C° 0 mm 4 mps 742 mmHg 85%
    18:00 -1°C° 0 mm 4 mps 742 mmHg 85%
    19:00 -1°C° 0 mm 4 mps 742 mmHg 85%
    20:00 -1°C° 0 mm 4 mps 742 mmHg 84%
    21:00 -1°C° 0 mm 4 mps 742 mmHg 85%
    22:00 -1°C° 0 mm 4 mps 742 mmHg 85%
    23:00 -1°C° 0 mm 4 mps 742 mmHg 85%

    17 December, Tuesday

    Time Temperature Precipitation Wind Pressure Humidity
    00:00 -1°C° 0 mm 4 mps 743 mmHg 85%
    01:00 -1°C° 0 mm 4 mps 743 mmHg 85%
    02:00 0°C° 0 mm 4 mps 743 mmHg 85%
    03:00 -1°C° 0 mm 4 mps 744 mmHg 86%
    04:00 -1°C° 0 mm 4 mps 744 mmHg 86%
    05:00 -1°C° 0 mm 4 mps 744 mmHg 87%
    06:00 -1°C° 0 mm 4 mps 745 mmHg 89%
    07:00 0°C° 0 mm 3 mps 745 mmHg 90%
    08:00 -1°C° 0 mm 3 mps 745 mmHg 92%
    09:00 -1°C° 0 mm 3 mps 745 mmHg 92%
    10:00 -1°C° 0 mm 3 mps 746 mmHg 91%
    11:00 0°C° 0 mm 3 mps 746 mmHg 91%
    12:00 0°C° 0 mm 3 mps 746 mmHg 91%
    13:00 0°C° 0 mm 3 mps 745 mmHg 91%
    14:00 +1°C° 0 mm 2 mps 745 mmHg 91%
    15:00 +1°C° 0.2 mm 2 mps 745 mmHg 93%
    16:00 0°C° 0.2 mm 3 mps 745 mmHg 94%
    17:00 -1°C° 0.2 mm 3 mps 744 mmHg 96%
    18:00 0°C° 0.6 mm 3 mps 744 mmHg 96%
    19:00 0°C° 0.6 mm 3 mps 743 mmHg 95%
    20:00 +1°C° 0.6 mm 3 mps 743 mmHg 95%
    21:00 +1°C° 0.2 mm 3 mps 743 mmHg 95%
    22:00 +1°C° 0.2 mm 3 mps 742 mmHg 95%
    23:00 +1°C° 0.2 mm 3 mps 742 mmHg 95%

    18 December, Wednesday

    Time Temperature Precipitation Wind Pressure Humidity
    00:00 +1°C° 0 mm 3 mps 742 mmHg 95%
    01:00 +1°C° 0 mm 3 mps 742 mmHg 95%
    02:00 +1°C° 0 mm 3 mps 742 mmHg 95%
    03:00 +1°C° 0 mm 3 mps 742 mmHg 95%
    04:00 +1°C° 0 mm 3 mps 742 mmHg 95%
    05:00 +1°C° 0 mm 3 mps 742 mmHg 95%
    06:00 +1°C° 0 mm 3 mps 741 mmHg 95%
    07:00 +1°C° 0 mm 3 mps 741 mmHg 95%
    08:00 +1°C° 0 mm 3 mps 741 mmHg 95%
    09:00 +1°C° 0 mm 3 mps 741 mmHg 94%
    10:00 +1°C° 0 mm 3 mps 741 mmHg 94%
    11:00 +2°C° 0 mm 3 mps 741 mmHg 93%
    12:00 +2°C° 0 mm 3 mps 741 mmHg 93%
    13:00 +2°C° 0 mm 3 mps 740 mmHg 92%
    14:00 +3°C° 0 mm 2 mps 740 mmHg 91%
    15:00 +3°C° 0 mm 2 mps 740 mmHg 92%
    16:00 +2°C° 0 mm 3 mps 740 mmHg 93%
    17:00 +1°C° 0 mm 3 mps 739 mmHg 93%
    18:00 +1°C° 0 mm 3 mps 739 mmHg 94%
    19:00 +1°C° 0 mm 3 mps 739 mmHg 94%
    20:00 +1°C° 0 mm 3 mps 738 mmHg 94%
    21:00 0°C° 0 mm 4 mps 738 mmHg 94%
    22:00 0°C° 0 mm 4 mps 738 mmHg 94%
    23:00 +1°C° 0 mm 4 mps 738 mmHg 94%
    Show more